Temp
-12 -11 -11 -11 -11 -11 -11 -11 -10 -10 -10 -10 -9 -10 -10 -10 -10 -10 -10 -10 -10 -10 -10 -10 -10 -11 -11 -11 -11 -11 -11 -11 -11 -11 -11 -11 -11 -11 -11 -11 -11 -11 -11 -12 -12
-12 -11 -11 -11 -11 -11 -11 -11 -11 -10 -10 -10 -10 -10 -10 -10 -10 -10 -10 -10 -10 -10 -10 -10 -10 -11 -11 -11 -11 -11 -11 -11 -11 -11 -11 -11 -11 -11 -11 -11 -11 -11 -11 -12 -12
-12 -11 -11 -11 -11 -11 -11 -11 -11 -11 -11 -10 -10 -10 -10 -10 -10 -10 -10 -10 -10 -10 -10 -10 -10 -11 -11 -11 -11 -11 -11 -11 -11 -11 -11 -11 -12 -11 -11 -12 -11 -12 -12 -12 -12
-12 -12 -11 -11 -11 -11 -11 -11 -10 -11 -10 -11 -11 -10 -10 -10 -10 -10 -10 -10 -10 -10 -10 -10 -11 -11 -11 -11 -11 -11 -11 -11 -11 -11 -12 -12 -11 -12 -12 -11 -12 -12 -12 -12 -12
-12 -12 -12 -11 -11 -11 -11 -11 -11 -10 -10 -11 -10 -10 -10 -10 -10 -10 -10 -10 -10 -11 -10 -11 -11 -11 -11 -11 -11 -11 -11 -11 -12 -12 -12 -11 -11 -11 -12 -11 -11 -11 -12 -12 -12
-11 -11 -12 -11 -11 -11 -11 -11 -11 -11 -11 -10 -10 -11 -11 -11 -11 -11 -10 -11 -11 -11 -11 -11 -11 -11 -11 -11 -11 -11 -11 -11 -12 -12 -11 -11 -11 -11 -12 -11 -11 -11 -12 -12 -12
-11 -12 -11 -12 -11 -11 -11 -11 -11 -11 -11 -11 -11 -11 -11 -11 -11 -11 -11 -11 -11 -11 -11 -11 -11 -11 -11 -11 -11 -11 -11 -11 -11 -11 -11 -11 -11 -12 -11 -11 -11 -11 -12 -12 -12
-11 -11 -12 -11 -12 -11 -11 -11 -11 -11 -11 -11 -11 -11 -11 -11 -11 -11 -11 -11 -11 -11 -11 -11 -11 -11 -11 -11 -11 -11 -11 -11 -11 -11 -11 -11 -11 -12 -12 -12 -12 -12 -12 -12 -12
-11 -11 -12 -12 -11 -12 -11 -11 -11 -11 -11 -11 -11 -11 -11 -11 -11 -11 -11 -11 -11 -11 -11 -11 -11 -11 -11 -11 -11 -11 -11 -11 -11 -11 -11 -11 -12 -12 -12 -11 -12 -12 -12 -12 -12
-11 -11 -11 -12 -11 -11 -11 -11 -11 -11 -11 -11 -11 -11 -11 -11 -11 -11 -11 -11 -11 -11 -11 -11 -11 -11 -11 -11 -11 -11 -11 -12 -11 -11 -11 -11 -11 -11 -11 -11 -11 -12 -12 -11 -12
-12 -11 -11 -11 -12 -11 -11 -11 -11 -11 -11 -11 -11 -11 -11 -11 -11 -11 -11 -11 -11 -11 -11 -11 -11 -11 -11 -11 -11 -11 -11 -11 -11 -11 -11 -11 -11 -11 -11 -10 -11 -11 -10 -11 -11
-11 -11 -11 -11 -11 -11 -11 -11 -11 -11 -11 -11 -11 -11 -11 -11 -11 -11 -11 -11 -11 -11 -11 -11 -11 -11 -11 -11 -11 -12 -11 -12 -11 -11 -10 -11 -10 -11 -11 -10 -10 -10 -10 -10 -10
-11 -12 -11 -11 -11 -11 -12 -12 -11 -11 -11 -11 -11 -11 -11 -11 -11 -11 -11 -11 -11 -11 -11 -11 -11 -11 -11 -11 -11 -11 -12 -12 -12 -11 -11 -10 -10 -11 -11 -10 -9 -9 -10 -10 -10
-11 -11 -11 -11 -11 -12 -12 -12 -12 -12 -11 -11 -11 -11 -11 -10 -11 -10 -10 -10 -10 -11 -11 -11 -10 -11 -11 -11 -12 -11 -12 -12 -12 -11 -10 -11 -9 -11 -12 -12 -10 -9 -9 -10 -10
-12 -11 -11 -11 -12 -12 -12 -12 -12 -12 -11 -10 -10 -10 -11 -11 -11 -11 -11 -10 -11 -11 -11 -11 -11 -11 -11 -11 -11 -11 -11 -12 -12 -12 -11 -11 -11 -10 -11 -11 -11 -10 -10 -10 -10
-11 -11 -12 -12 -12 -12 -12 -12 -12 -12 -10 -10 -10 -10 -10 -10 -11 -11 -11 -10 -11 -11 -11 -11 -11 -11 -11 -11 -12 -12 -12 -12 -12 -11 -11 -11 -11 -10 -11 -11 -11 -10 -10 -11 -11
-11 -12 -12 -12 -12 -12 -12 -12 -12 -11 -10 -9 -10 -10 -10 -10 -11 -10 -11 -11 -10 -11 -11 -11 -11 -11 -11 -12 -12 -12 -12 -12 -12 -11 -11 -11 -11 -11 -11 -11 -11 -12 -11 -11 -11
-12 -12 -12 -12 -12 -12 -12 -12 -12 -10 -10 -10 -10 -11 -11 -11 -10 -11 -11 -10 -10 -10 -11 -11 -11 -11 -12 -12 -12 -12 -12 -12 -12 -12 -11 -11 -10 -11 -12 -12 -11 -11 -12 -12 -12
-13 -12 -13 -12 -12 -12 -12 -12 -10 -10 -10 -11 -11 -11 -11 -11 -11 -12 -12 -11 -11 -12 -12 -12 -11 -12 -12 -12 -12 -12 -12 -12 -12 -12 -11 -11 -11 -12 -12 -12 -12 -11 -11 -12 -12
-12 -12 -13 -13 -13 -13 -13 -12 -11 -11 -11 -11 -12 -12 -12 -12 -12 -12 -12 -12 -12 -12 -13 -12 -12 -12 -12 -12 -12 -12 -12 -12 -12 -12 -11 -10 -11 -12 -12 -12 -12 -12 -11 -12 -12
-14 -13 -13 -13 -13 -13 -13 -12 -12 -12 -11 -12 -12 -12 -12 -12 -12 -12 -12 -12 -12 -13 -13 -13 -12 -11 -11 -11 -12 -12 -12 -13 -13 -12 -11 -11 -11 -13 -12 -13 -13 -12 -12 -12 -12
-14 -14 -14 -14 -14 -14 -13 -13 -13 -13 -13 -12 -12 -12 -12 -13 -12 -12 -12 -12 -12 -12 -12 -13 -12 -12 -11 -11 -11 -11 -11 -12 -12 -12 -12 -12 -11 -13 -14 -13 -13 -13 -13 -12 -12
-14 -14 -14 -14 -14 -14 -14 -13 -13 -13 -13 -13 -13 -13 -13 -13 -13 -12 -13 -13 -12 -12 -12 -13 -12 -12 -11 -11 -11 -11 -12 -13 -13 -12 -11 -12 -11 -13 -14 -15 -14 -14 -14 -13 -12
-15 -15 -15 -14 -14 -14 -14 -14 -14 -14 -14 -14 -13 -13 -13 -13 -13 -13 -13 -13 -13 -13 -13 -13 -12 -12 -12 -12 -12 -12 -13 -13 -13 -12 -11 -11 -12 -14 -15 -15 -15 -15 -15 -13 -13
-14 -15 -15 -14 -14 -14 -15 -15 -15 -14 -15 -15 -14 -14 -14 -14 -14 -14 -14 -14 -13 -13 -14 -14 -14 -14 -14 -13 -13 -12 -12 -13 -13 -13 -12 -12 -12 -13 -14 -15 -16 -16 -15 -15 -14
-15 -15 -15 -15 -15 -16 -16 -15 -15 -15 -15 -16 -15 -15 -15 -15 -15 -15 -16 -16 -15 -15 -15 -15 -14 -14 -14 -14 -14 -12 -12 -12 -12 -12 -12 -13 -12 -15 -15 -15 -15 -16 -15 -14 -14
-17 -16 -15 -15 -16 -17 -16 -16 -16 -16 -16 -16 -16 -17 -16 -17 -17 -16 -17 -17 -16 -16 -16 -16 -16 -16 -15 -15 -15 -13 -12 -13 -12 -12 -13 -12 -13 -15 -15 -15 -15 -16 -15 -14 -14
Height
5784 5785 5787 5788 5789 5791 5792 5794 5796 5799 5802 5805 5807 5809 5812 5815 5817 5821 5822 5825 5826 5828 5829 5830 5831 5831 5831 5831 5831 5831 5831 5830 5829 5829 5829 5827 5827 5826 5825 5824 5823 5821 5820 5818 5817
5780 5782 5784 5785 5786 5788 5790 5792 5794 5797 5799 5802 5804 5807 5810 5812 5815 5817 5820 5821 5823 5824 5826 5827 5828 5828 5828 5828 5828 5828 5828 5827 5827 5826 5826 5825 5824 5823 5822 5821 5820 5818 5816 5815 5813
5775 5778 5780 5783 5783 5785 5787 5790 5792 5795 5797 5799 5802 5804 5806 5809 5812 5814 5816 5818 5820 5821 5822 5824 5824 5825 5825 5825 5825 5824 5824 5824 5824 5824 5822 5822 5821 5820 5819 5818 5817 5815 5813 5811 5809
5769 5772 5775 5779 5781 5781 5783 5786 5788 5790 5793 5796 5799 5801 5803 5805 5809 5809 5811 5814 5815 5817 5818 5820 5821 5821 5821 5822 5822 5821 5820 5821 5820 5820 5819 5818 5818 5817 5816 5815 5813 5812 5810 5808 5805
5763 5767 5770 5773 5777 5778 5779 5782 5784 5786 5789 5792 5794 5797 5799 5802 5804 5805 5807 5809 5811 5813 5814 5816 5817 5817 5817 5818 5818 5817 5817 5817 5817 5816 5817 5815 5815 5814 5812 5811 5810 5808 5807 5804 5801
5757 5760 5764 5767 5771 5773 5775 5778 5780 5782 5785 5788 5790 5792 5795 5798 5799 5801 5803 5805 5807 5809 5811 5812 5813 5813 5814 5814 5814 5814 5814 5813 5813 5813 5812 5811 5811 5810 5807 5807 5806 5804 5801 5799 5797
5751 5754 5758 5761 5764 5768 5771 5773 5776 5777 5780 5783 5786 5788 5791 5793 5795 5797 5799 5800 5802 5804 5806 5807 5808 5810 5810 5810 5810 5810 5811 5810 5810 5808 5807 5806 5807 5805 5804 5803 5801 5798 5797 5794 5793
5742 5747 5751 5754 5758 5761 5764 5768 5771 5773 5775 5777 5780 5783 5786 5787 5790 5792 5794 5796 5798 5799 5801 5802 5803 5805 5805 5806 5806 5806 5807 5807 5805 5802 5802 5802 5804 5799 5798 5796 5795 5792 5791 5790 5788
5734 5739 5743 5747 5751 5754 5758 5761 5764 5767 5769 5771 5774 5777 5780 5783 5785 5787 5789 5791 5792 5794 5796 5797 5799 5800 5800 5801 5801 5801 5801 5802 5800 5797 5796 5796 5797 5794 5791 5790 5788 5787 5786 5783 5783
5724 5730 5735 5739 5743 5748 5751 5754 5757 5759 5762 5765 5768 5771 5776 5778 5779 5781 5783 5785 5786 5789 5791 5792 5794 5795 5795 5794 5795 5794 5795 5795 5795 5793 5791 5791 5791 5787 5786 5785 5783 5781 5779 5778 5777
5713 5719 5725 5730 5735 5739 5744 5746 5752 5754 5756 5759 5763 5764 5768 5770 5772 5775 5777 5779 5781 5783 5785 5787 5789 5790 5788 5789 5790 5790 5790 5790 5789 5787 5787 5785 5786 5782 5778 5779 5777 5775 5774 5773 5771
5702 5708 5715 5720 5725 5730 5735 5740 5744 5746 5747 5749 5753 5756 5759 5763 5766 5768 5771 5774 5776 5778 5780 5782 5784 5784 5784 5785 5785 5784 5783 5785 5785 5783 5781 5780 5781 5779 5772 5771 5770 5769 5768 5769 5768
5690 5696 5703 5709 5715 5721 5728 5731 5734 5737 5739 5742 5745 5748 5751 5755 5759 5762 5765 5767 5770 5772 5774 5775 5777 5778 5779 5780 5780 5779 5779 5779 5779 5778 5775 5776 5775 5774 5768 5766 5763 5763 5763 5763 5762
5678 5684 5690 5697 5705 5711 5717 5721 5726 5729 5729 5732 5735 5738 5742 5747 5750 5755 5758 5762 5763 5764 5766 5769 5771 5772 5773 5774 5773 5773 5773 5772 5772 5772 5770 5770 5769 5769 5764 5759 5759 5758 5758 5757 5756
5665 5673 5680 5688 5694 5699 5705 5709 5715 5719 5717 5723 5724 5730 5734 5738 5748 5748 5751 5753 5756 5757 5759 5764 5764 5764 5765 5767 5767 5770 5767 5765 5764 5764 5767 5767 5764 5765 5757 5755 5753 5752 5752 5751 5750
5652 5659 5667 5673 5681 5688 5689 5695 5701 5707 5698 5705 5711 5718 5726 5731 5738 5741 5742 5745 5749 5748 5750 5755 5757 5758 5759 5760 5759 5762 5761 5758 5756 5756 5759 5761 5759 5762 5752 5749 5747 5746 5745 5744 5743
5639 5646 5654 5660 5667 5672 5677 5682 5687 5687 5692 5696 5700 5710 5716 5723 5727 5730 5734 5736 5739 5741 5744 5747 5748 5750 5752 5752 5753 5754 5755 5751 5749 5748 5749 5754 5754 5756 5748 5744 5741 5740 5740 5738 5736
5626 5632 5636 5644 5650 5655 5661 5665 5670 5675 5681 5686 5693 5699 5707 5714 5716 5721 5724 5726 5728 5732 5736 5737 5739 5741 5744 5744 5746 5744 5746 5747 5739 5739 5738 5741 5748 5750 5742 5739 5737 5735 5733 5732 5730
5609 5617 5623 5628 5633 5637 5643 5645 5656 5661 5671 5679 5683 5690 5694 5701 5707 5709 5713 5717 5720 5724 5727 5727 5725 5730 5733 5735 5737 5736 5736 5741 5735 5731 5728 5729 5738 5743 5738 5735 5732 5729 5727 5726 5724
5598 5605 5610 5613 5618 5620 5624 5634 5645 5653 5660 5666 5671 5676 5680 5687 5692 5697 5700 5706 5710 5712 5714 5715 5716 5718 5720 5722 5723 5725 5730 5729 5730 5724 5720 5718 5721 5733 5733 5731 5727 5723 5721 5718 5715
5584 5587 5593 5597 5601 5605 5612 5625 5632 5639 5646 5653 5659 5665 5667 5673 5678 5683 5690 5694 5695 5698 5699 5703 5706 5708 5709 5711 5715 5716 5716 5720 5722 5717 5715 5713 5713 5717 5726 5722 5718 5717 5714 5711 5706
5568 5574 5580 5583 5587 5593 5604 5615 5624 5628 5634 5642 5648 5652 5657 5661 5664 5669 5675 5677 5680 5682 5685 5690 5692 5694 5696 5699 5702 5704 5707 5710 5710 5710 5707 5704 5704 5707 5714 5716 5710 5709 5706 5703 5700
5553 5559 5562 5566 5573 5585 5594 5603 5610 5615 5623 5628 5634 5638 5643 5648 5651 5654 5659 5661 5664 5669 5672 5676 5678 5683 5686 5689 5690 5695 5700 5702 5702 5698 5692 5692 5694 5698 5701 5704 5704 5702 5698 5696 5693
5537 5539 5543 5551 5562 5573 5581 5589 5595 5602 5608 5614 5620 5626 5630 5634 5638 5641 5644 5647 5651 5654 5657 5659 5664 5668 5673 5677 5680 5682 5686 5689 5688 5683 5685 5684 5685 5691 5692 5692 5696 5692 5692 5689 5684
5518 5525 5534 5542 5551 5560 5568 5575 5582 5589 5595 5599 5605 5612 5616 5621 5624 5627 5629 5633 5636 5640 5644 5646 5652 5655 5659 5662 5666 5671 5674 5675 5673 5675 5668 5673 5670 5679 5680 5685 5683 5682 5680 5678 5673
5500 5513 5522 5532 5537 5543 5550 5561 5570 5575 5582 5587 5593 5597 5599 5607 5612 5614 5616 5619 5623 5628 5631 5634 5636 5640 5645 5647 5649 5655 5660 5656 5659 5659 5658 5660 5661 5665 5671 5669 5670 5667 5664 5664 5664
5485 5494 5504 5512 5520 5529 5541 5548 5554 5560 5567 5573 5579 5582 5586 5595 5596 5601 5603 5605 5611 5615 5618 5621 5624 5627 5631 5634 5633 5638 5643 5644 5647 5645 5647 5644 5654 5655 5654 5654 5653 5650 5649 5650 5652
Wind_Speed
20 18 18 13 11 14 17 15 15 17 19 19 19 19 19 20 19 19 18 17 16 15 14 12 12 12 13 13 14 14 16 16 15 13 12 12 11 10 11 11 13 15 17 18 19
21 18 20 17 13 13 17 18 16 17 19 20 21 20 20 20 20 20 18 17 17 17 15 13 13 14 14 15 15 15 16 17 16 15 14 15 14 14 15 15 16 18 19 20 20
23 21 21 20 17 14 14 17 22 19 18 18 20 20 21 22 21 20 19 19 19 17 16 14 15 16 15 16 16 16 17 17 17 17 17 18 18 19 18 20 19 20 20 21 21
26 24 22 22 21 18 17 17 19 18 23 21 19 18 21 20 22 20 20 21 19 18 16 16 17 16 16 16 17 17 18 18 18 19 19 19 20 21 21 22 22 20 22 21 21
30 28 26 24 22 20 19 20 19 19 18 22 23 22 23 22 21 21 22 22 20 19 17 18 17 17 17 16 17 17 18 20 20 20 19 20 20 21 22 23 21 22 23 23 23
34 31 30 28 26 24 22 21 22 21 21 22 21 19 18 20 22 22 23 21 20 19 19 18 18 18 16 17 18 17 18 19 19 19 20 21 20 20 23 21 23 24 25 24 25
36 34 33 31 30 29 27 24 22 23 22 24 25 24 24 22 21 20 21 21 21 20 19 18 17 16 16 17 16 17 18 17 16 20 21 21 18 20 23 24 24 26 26 25 25
40 39 36 34 33 32 31 30 27 26 25 26 26 26 24 25 26 23 23 23 21 20 19 17 16 16 16 16 17 19 16 16 19 22 21 24 18 25 27 28 27 27 27 28 27
42 42 40 37 35 33 32 32 33 31 28 26 27 26 26 26 25 24 24 25 23 21 20 19 18 17 16 18 19 18 19 20 21 22 22 22 19 24 28 27 28 28 27 30 30
45 44 43 39 37 35 34 33 33 34 33 31 29 28 25 25 28 28 28 25 24 25 24 21 20 19 18 21 20 20 20 21 19 19 18 17 15 22 23 23 25 27 29 29 29
48 47 44 42 40 39 37 36 34 32 34 33 32 30 28 28 28 28 29 29 28 27 25 24 24 20 25 23 21 22 22 19 16 18 18 19 14 21 25 21 23 28 28 27 28
53 49 47 45 43 41 40 38 36 35 36 36 35 35 32 32 30 30 31 31 30 29 28 27 24 26 25 24 24 24 23 21 20 20 21 20 15 17 25 24 22 27 29 26 26
55 53 50 48 46 44 42 42 42 40 38 38 39 37 36 36 34 31 31 30 29 30 29 28 26 26 26 25 25 24 25 23 23 23 23 21 15 15 21 24 27 27 26 24 22
57 56 54 52 50 47 45 45 43 43 43 44 42 43 39 36 36 33 32 31 30 31 31 31 27 27 27 27 28 26 27 27 27 26 24 23 13 9 16 25 27 28 26 25 25
63 58 58 53 52 52 51 50 48 47 53 50 48 45 43 41 34 34 33 35 34 33 33 30 29 30 30 29 30 26 27 29 31 31 26 22 21 9 20 23 24 29 30 30 30
61 63 62 61 57 56 58 57 57 55 60 57 53 48 46 42 39 37 37 36 36 38 36 33 31 32 32 32 32 30 29 33 34 34 31 25 27 9 25 26 26 25 27 28 29
60 62 60 60 61 63 64 63 62 62 57 57 57 47 45 44 41 42 39 36 38 38 36 34 35 34 34 35 35 32 33 37 40 38 37 28 26 20 28 29 30 28 26 28 30
64 61 65 65 64 66 65 64 66 64 62 59 56 53 49 44 39 40 40 38 41 40 37 38 37 36 36 37 37 39 38 38 43 44 42 36 23 17 30 31 33 34 30 27 30
67 63 63 71 65 68 69 72 71 67 65 60 58 55 54 52 49 46 39 38 37 35 38 40 43 39 40 40 41 42 42 39 44 47 47 45 31 19 25 29 33 37 37 32 31
70 71 66 60 63 64 65 70 68 67 64 65 64 62 60 57 55 53 47 45 43 41 38 44 44 44 43 45 46 46 42 43 43 47 50 49 43 25 26 27 33 37 38 39 36
65 66 72 68 69 69 66 63 64 64 64 64 64 65 63 62 61 57 54 53 52 49 48 47 48 49 48 47 45 47 47 42 43 48 48 48 48 41 29 30 33 34 38 40 43
60 69 67 63 61 60 60 62 62 64 62 62 62 63 64 66 66 65 60 60 60 58 53 51 53 56 56 53 50 50 50 47 45 46 47 49 48 45 35 29 37 37 39 42 44
72 68 69 69 67 69 67 64 62 61 60 62 61 59 59 61 61 60 57 57 57 55 57 57 58 57 58 57 56 52 49 48 46 48 53 52 51 47 41 36 32 34 37 41 45
77 74 71 72 67 66 66 63 62 62 62 61 62 61 60 61 60 59 59 60 60 60 61 63 62 61 60 60 60 59 54 52 52 55 55 56 54 47 44 43 36 37 37 38 43
74 76 73 71 68 69 63 59 58 59 57 59 63 62 59 57 54 55 56 58 60 59 57 56 55 56 58 59 62 60 61 57 55 54 60 59 58 52 51 42 40 43 43 43 46
71 68 71 74 70 67 64 64 59 60 59 53 55 53 53 49 48 48 44 46 48 47 44 44 47 50 52 55 59 59 60 64 64 65 63 61 64 55 51 50 45 41 46 47 46
67 69 69 69 67 66 66 66 63 62 61 58 52 55 54 45 42 42 36 40 39 39 39 42 43 42 46 47 51 55 56 57 59 66 66 68 63 53 53 52 49 49 46 45 46
Wind_Direction
239 231 240 236 233 234 216 209 211 213 216 212 215 213 212 213 213 221 223 232 237 240 242 253 263 266 264 262 262 262 267 272 274 276 272 272 275 279 285 296 300 304 303 306 306
235 229 236 236 231 230 215 215 211 213 214 216 218 215 216 218 220 227 230 238 240 241 244 252 259 266 264 263 264 265 267 272 276 274 271 271 275 280 284 292 298 300 300 306 304
231 226 228 237 232 232 226 229 229 234 223 219 224 221 222 224 228 233 237 243 243 244 246 250 256 262 266 266 264 265 266 271 279 281 275 274 275 278 284 290 297 295 301 305 304
229 226 224 231 231 227 229 230 228 227 226 231 227 233 230 228 231 234 238 241 240 243 245 248 254 262 266 267 265 266 270 275 277 278 281 280 279 282 288 290 291 297 301 305 302
228 230 223 226 230 226 229 234 231 230 234 233 235 235 239 237 234 235 236 237 237 237 242 250 256 262 261 263 264 269 275 276 280 282 284 283 285 285 286 288 293 295 300 300 298
231 229 227 223 226 231 231 235 237 233 235 237 234 233 228 233 234 234 235 236 239 243 247 252 257 258 262 261 264 270 274 280 286 294 289 286 291 293 283 293 294 297 298 299 298
233 231 231 227 228 231 237 235 236 238 233 234 235 239 239 236 237 235 237 234 238 242 249 253 255 261 259 261 266 271 276 287 301 295 294 293 298 293 293 293 294 297 299 298 299
232 234 232 232 232 233 234 238 239 238 235 233 237 240 245 238 237 240 236 237 242 247 246 242 246 254 259 263 266 269 273 284 288 286 288 288 298 290 291 289 291 291 294 297 296
232 236 236 233 234 234 235 236 238 239 239 236 236 239 242 239 233 238 239 239 243 238 239 243 246 248 252 257 261 268 270 279 284 284 288 296 302 289 285 287 284 284 290 290 294
230 234 237 233 232 235 236 237 237 237 239 239 236 236 239 240 243 245 238 235 234 239 242 246 246 248 251 253 255 261 272 275 284 283 290 301 309 304 296 291 287 286 284 290 294
230 231 233 235 233 232 234 234 239 237 240 239 236 237 235 237 237 239 238 235 236 237 245 246 245 248 249 256 260 264 271 274 275 284 287 293 306 298 299 293 284 284 287 294 294
230 229 231 233 233 234 233 234 236 237 238 237 235 233 233 236 236 236 238 239 239 243 244 243 248 249 253 259 263 264 267 272 279 281 284 287 300 295 291 291 283 286 292 297 305
230 230 230 232 234 235 235 234 235 237 240 238 237 234 233 234 235 236 239 241 244 246 246 247 248 250 256 259 261 265 269 272 278 281 287 292 291 289 282 281 279 282 289 297 300
232 234 234 231 232 234 235 236 236 238 241 240 238 236 232 232 234 235 240 241 241 244 246 246 247 252 254 255 258 260 270 276 282 284 285 292 283 267 282 277 281 283 292 295 297
234 234 237 236 234 233 234 234 235 235 236 240 238 239 237 237 238 238 239 243 242 244 246 247 245 247 250 253 261 266 271 277 282 285 288 297 290 267 282 281 284 283 281 286 294
224 231 236 237 235 236 236 235 232 231 239 238 239 239 241 241 242 241 240 242 245 244 246 249 248 249 253 256 258 263 267 273 278 282 284 289 288 284 284 282 281 277 281 283 285
226 227 228 232 235 236 239 236 235 236 239 241 242 239 242 242 242 242 241 242 247 249 248 252 252 253 255 256 258 262 265 270 275 280 283 279 284 294 280 279 283 288 287 287 288
220 219 220 225 228 232 232 232 233 239 241 244 243 247 245 245 243 244 242 243 246 247 248 250 253 255 254 256 259 259 262 267 276 279 280 276 274 279 280 284 285 286 289 287 287
220 217 217 215 217 222 223 229 234 237 239 241 245 248 249 246 246 243 241 241 245 248 249 248 247 250 255 255 255 257 259 266 269 275 279 282 280 270 278 282 285 285 286 289 287
224 223 221 222 224 220 220 226 233 237 239 241 242 245 247 248 245 245 245 246 246 246 242 243 246 247 247 250 251 255 258 261 264 272 276 280 282 277 280 285 281 281 284 288 290
224 222 222 222 225 225 226 223 225 229 234 237 239 242 244 247 250 250 249 247 244 242 241 243 247 247 249 250 253 253 256 259 263 265 270 276 283 286 280 283 281 282 283 287 291
226 221 220 218 220 224 226 231 233 236 238 240 240 241 245 247 248 250 251 248 248 248 249 246 247 248 250 253 253 254 254 254 262 269 270 270 271 278 282 275 282 286 284 284 287
223 226 226 224 226 229 231 232 234 236 239 241 240 238 239 243 244 247 250 251 253 253 253 251 253 252 254 255 258 258 263 264 262 262 266 266 269 274 275 274 273 275 277 279 282
226 224 222 225 228 226 226 229 231 233 233 235 238 241 241 241 244 248 250 252 254 253 253 251 250 253 255 255 255 256 258 260 261 263 270 272 272 269 270 274 277 273 272 273 275
229 221 223 224 228 229 223 221 223 228 231 234 235 237 240 243 245 246 249 251 253 254 252 252 254 254 254 254 254 254 254 258 258 262 262 267 268 270 271 273 270 276 277 274 273
236 229 224 223 222 222 217 220 222 225 224 226 233 233 235 237 242 244 244 247 250 251 254 255 255 256 256 256 255 254 255 255 256 258 260 267 270 274 278 279 280 274 271 275 275
240 240 235 225 224 218 217 218 219 220 222 226 229 233 233 233 242 243 240 241 247 249 248 250 253 255 257 257 255 255 256 257 261 261 262 263 269 274 275 275 275 270 274 278 279